[[{"header":{"parameterUnit":"m.s-1","parameterCategory":2,"la1":30.2991,"la2":30.254,"lo1":-89.0895,"lo2":-89.0444,"dy":0.0017,"dx":0.0017,"nx":28,"ny":28,"refTime":"2025-04-13T21:00:00:Z","depth":"0","parameterNumber":2,"parameterNumberName":"U-component_of_CURRENTS"},"data":[0,0,0,0,0,0,0,0,0,0,0,0,0,0,0,0,0,0,0,0,0,0,0,0,0,0,0,0,0,0,0,0,0,0,0,0,0,0,0,0,0,0,0,0,0,0,0,0,0,0,0,0,0,0,0,0,0,0,-0.1615,-0.1615,0,-0.16,-0.16,-0.16,-0.1574,-0.1574,-0.1573,-0.1573,-0.1506,-0.1504,-0.1503,0,0,0,0,0,0,0,0,0,0,0,0,0,-0.1629,-0.1629,-0.1615,-0.1615,-0.1615,-0.16,-0.16,-0.16,-0.1574,-0.1574,-0.1573,-0.1573,-0.1506,-0.1505,-0.1503,0,0,0,0,0,0,0,0,0,0,0,0,0,-0.1619,-0.1629,-0.1615,-0.1601,-0.1599,-0.16,-0.16,-0.16,-0.1575,-0.1574,-0.1573,-0.1573,-0.1507,-0.1505,-0.1503,-0.1504,0,0,-0.1497,-0.1496,0,0,0,0,0,0,0,0,-0.162,-0.1619,-0.1603,-0.1602,-0.16,-0.1588,-0.158,-0.1565,-0.1575,-0.1584,-0.1573,-0.1572,-0.1529,-0.1525,-0.1525,-0.1501,-0.1498,-0.1496,-0.1495,-0.1494,-0.1494,0,0,0,0,0,0,0,-0.1621,-0.1619,-0.1609,-0.1603,-0.1601,-0.1597,-0.1595,-0.1577,-0.1559,-0.1583,-0.1581,-0.158,-0.1528,-0.1527,-0.1523,-0.1497,-0.1496,-0.1495,-0.1493,-0.1493,-0.1488,-0.1489,0,0,0,0,0,0,-0.1623,-0.162,-0.161,-0.1609,-0.1609,-0.1597,-0.1595,-0.1593,-0.1561,-0.1556,-0.158,-0.1579,-0.153,-0.1525,-0.152,-0.1526,-0.1494,-0.1492,-0.1491,-0.1487,-0.1488,-0.1489,0,0,0,0,0,0,-0.1623,-0.1622,-0.161,-0.1614,-0.1612,-0.1598,-0.1596,-0.1593,-0.1588,-0.1559,-0.1553,-0.1578,-0.153,-0.1523,-0.1512,-0.1523,-0.1491,-0.149,-0.1485,-0.1487,-0.1489,-0.1534,0,0,0,0,0,0,-0.1624,-0.1622,-0.1623,-0.1614,-0.1612,-0.1615,-0.1596,-0.1593,-0.1589,-0.1586,-0.1556,-0.1549,-0.1529,-0.1515,-0.151,-0.1519,-0.1488,-0.1484,-0.1486,-0.1488,-0.1531,-0.1537,-0.1542,0,0,0,0,0,-0.1624,-0.1627,-0.1623,-0.1621,-0.1612,-0.1616,-0.1615,-0.1602,-0.1589,-0.1594,-0.1575,-0.155,-0.1525,-0.1514,-0.1508,-0.1517,-0.1483,-0.1485,-0.1488,-0.1528,-0.1535,-0.1541,0,0,0,0,0,0,-0.1628,-0.1625,-0.1619,-0.1619,-0.162,-0.1611,-0.1611,-0.1604,-0.1594,-0.159,-0.1559,-0.1552,-0.155,-0.153,-0.1519,-0.1525,-0.1501,-0.1503,-0.1535,-0.1541,-0.1546,-0.1553,-0.1486,0,0,0,0,0,-0.1631,-0.1634,-0.163,-0.1631,-0.1631,-0.1622,-0.1621,-0.1617,-0.1607,-0.1602,-0.1577,-0.1561,-0.1557,-0.1545,-0.1536,-0.1532,-0.1523,-0.1537,-0.1542,-0.1547,-0.1549,-0.1539,-0.1543,-0.1497,-0.1497,-0.1497,0,0,-0.163,-0.163,-0.163,-0.1632,-0.1629,-0.1644,-0.1619,-0.1623,-0.1635,-0.1595,-0.1594,-0.1578,-0.1562,-0.1564,-0.1561,-0.1545,-0.1561,-0.155,-0.1554,-0.1554,-0.1542,-0.1546,-0.155,-0.1499,-0.1499,-0.1498,0,0,-0.164,-0.1633,-0.1643,-0.1653,-0.1658,-0.1658,-0.1661,-0.1654,-0.1647,-0.1648,-0.163,-0.1623,-0.1601,-0.1598,-0.1594,-0.1624,-0.1594,-0.1618,-0.1642,-0.1632,-0.1635,-0.1638,-0.1656,-0.166,-0.1615,-0.1615,-0.1615,0,-0.1643,-0.1653,-0.1647,-0.1668,-0.168,-0.1667,-0.1689,-0.1688,-0.1678,-0.1673,-0.1653,-0.1637,-0.1622,-0.1633,-0.1645,-0.1636,-0.1629,-0.1616,-0.1638,-0.164,-0.1642,-0.166,-0.1663,-0.1618,-0.1617,-0.1617,-0.1617,0,-0.1663,-0.168,-0.1687,-0.1712,-0.1726,-0.1741,-0.1746,-0.1749,-0.1734,-0.1726,-0.1721,-0.1699,-0.1685,-0.1685,-0.1672,-0.1684,-0.1677,-0.1649,-0.1618,-0.1649,-0.1667,-0.167,-0.1621,-0.162,-0.162,-0.1619,0,0,-0.1649,-0.1694,-0.1696,-0.1719,-0.1752,-0.1762,-0.179,-0.1801,-0.1807,-0.1788,-0.1789,-0.1783,-0.1752,-0.1747,-0.1727,-0.1718,-0.1737,-0.1688,-0.1686,-0.1703,-0.1731,-0.1603,-0.1594,-0.1702,-0.1702,-0.1702,-0.1746,0,-0.1666,-0.1709,-0.1733,-0.178,-0.18,-0.182,-0.1842,-0.1854,-0.1847,-0.1843,-0.182,-0.1809,-0.1781,-0.1767,-0.1759,-0.1736,-0.1743,-0.1729,-0.1702,-0.1702,-0.158,-0.1592,-0.1462,-0.1478,-0.1749,-0.175,-0.175,0,-0.1674,-0.1703,-0.1746,-0.1805,-0.1815,-0.1844,-0.1873,-0.1895,-0.19,-0.189,-0.1878,-0.185,-0.1844,-0.1807,-0.1791,-0.1778,-0.1765,-0.1749,-0.175,-0.1612,-0.1577,-0.1487,-0.1473,-0.1472,-0.1754,-0.1754,-0.1754,0,-0.1648,-0.1714,-0.1745,-0.1766,-0.1827,-0.1848,-0.1876,-0.1897,-0.1895,-0.1912,-0.1894,-0.1892,-0.1864,-0.185,-0.1805,-0.1799,-0.1783,-0.1771,-0.1658,-0.1651,-0.1525,-0.1504,-0.1497,-0.1773,-0.1772,-0.1772,-0.1772,0,-0.1652,-0.1678,-0.1731,-0.1749,-0.1775,-0.1832,-0.1845,-0.1878,-0.1894,-0.1877,-0.19,-0.1878,-0.1864,-0.1841,-0.1825,-0.1735,-0.1797,-0.1663,-0.1641,-0.1539,-0.152,-0.1498,-0.1542,-0.1774,-0.1774,-0.1773,-0.1773,0,-0.1615,-0.1655,-0.169,-0.1749,-0.176,-0.1776,-0.1807,-0.1798,-0.1844,-0.1826,-0.1824,-0.1853,-0.1814,-0.1798,-0.178,-0.1727,-0.1648,-0.1648,-0.1537,-0.1498,-0.1347,-0.1398,-0.1401,-0.1365,-0.1526,-0.1523,-0.1521,0,-0.1597,-0.161,-0.1659,-0.1648,-0.1671,-0.169,-0.1677,-0.1748,-0.1741,-0.1792,-0.177,-0.1761,-0.17,-0.164,-0.1553,-0.149,-0.1547,-0.1363,-0.131,-0.1313,-0.1357,-0.1425,-0.1401,-0.1197,-0.1192,-0.1188,-0.1184,0,-0.1549,-0.1563,-0.1575,-0.1551,-0.1543,-0.1528,-0.1537,-0.1529,-0.1594,-0.1585,-0.1581,-0.1553,-0.1497,-0.1339,-0.1259,-0.1237,-0.1313,-0.1271,-0.1301,-0.1111,-0.1159,-0.1121,-0.1234,-0.1147,-0.1151,-0.1154,-0.1156,-0.1157,-0.1479,-0.1466,-0.1456,-0.1426,-0.1399,-0.1333,-0.1284,-0.1286,-0.1251,-0.1189,-0.1294,-0.1134,-0.1091,-0.0926,-0.0952,-0.0904,-0.1017,-0.0873,-0.0948,-0.1027,-0.0938,-0.0966,-0.082,-0.0821,-0.0823,-0.0824,-0.0825,0,-0.1371,-0.1354,-0.1317,-0.1258,-0.1166,-0.1202,-0.1147,-0.1068,-0.097,-0.0874,-0.08,-0.0554,-0.049,-0.0544,-0.0563,-0.0579,-0.0636,-0.0634,-0.0726,-0.0724,-0.0754,-0.0678,-0.0457,-0.0457,-0.0457,-0.0458,-0.0458,-0.0458,-0.1303,-0.124,-0.1222,-0.1036,-0.098,-0.0837,-0.0782,-0.0686,-0.0576,-0.0321,-0.0103,0.0042,-0.0102,-0.037,-0.0504,-0.0513,-0.0589,-0.0565,-0.0663,-0.0706,-0.0736,-0.0764,-0.0701,-0.0489,-0.0489,-0.0562,-0.0562,-0.0563]},{"header":{"parameterUnit":"m.s-1","parameterCategory":2,"la1":30.2991,"la2":30.254,"lo1":-89.0895,"lo2":-89.0444,"dy":0.0017,"dx":0.0017,"nx":28,"ny":28,"refTime":"2025-04-13T21:00:00:Z","depth":"0","parameterNumber":3,"parameterNumberName":"V-component_of_CURRENTS"},"data":[0,0,0,0,0,0,0,0,0,0,0,0,0,0,0,0,0,0,0,0,0,0,0,0,0,0,0,0,0,0,0,0,0,0,0,0,0,0,0,0,0,0,0,0,0,0,0,0,0,0,0,0,0,0,0,0,0,0,0.0455,0.0456,0,0.0504,0.0505,0.0505,0.0531,0.0531,0.0531,0.0531,0.0624,0.0627,0.0629,0,0,0,0,0,0,0,0,0,0,0,0,0,0.0414,0.0415,0.0455,0.0456,0.0457,0.0504,0.0505,0.0506,0.0531,0.0531,0.0531,0.0531,0.0624,0.0627,0.063,0,0,0,0,0,0,0,0,0,0,0,0,0,0.0445,0.0415,0.0455,0.0475,0.0477,0.0504,0.0505,0.0506,0.0531,0.0531,0.0531,0.0531,0.0623,0.0626,0.063,0.0653,0,0,0.0641,0.0643,0,0,0,0,0,0,0,0,0.0443,0.0446,0.0471,0.0473,0.0476,0.0511,0.0525,0.0557,0.0531,0.0511,0.0531,0.0531,0.0591,0.0597,0.0606,0.0657,0.0661,0.0642,0.0644,0.0646,0.0647,0,0,0,0,0,0,0,0.0441,0.0445,0.0475,0.0472,0.0475,0.0491,0.0495,0.0531,0.0551,0.0512,0.0514,0.0519,0.0592,0.0602,0.0608,0.0663,0.0642,0.0645,0.0647,0.0649,0.0725,0.0724,0,0,0,0,0,0,0.0433,0.0442,0.0474,0.0477,0.0459,0.0492,0.0497,0.05,0.055,0.0557,0.0519,0.052,0.0596,0.0604,0.0612,0.0604,0.0646,0.0649,0.0651,0.0725,0.0725,0.0724,0,0,0,0,0,0,0.0432,0.0435,0.0472,0.046,0.0466,0.0492,0.0496,0.0501,0.0508,0.0554,0.0562,0.052,0.0596,0.0607,0.0634,0.0609,0.0651,0.0654,0.0725,0.0725,0.0724,0.0612,0,0,0,0,0,0,0.043,0.0434,0.0429,0.046,0.0466,0.0474,0.0497,0.0502,0.0511,0.0512,0.0558,0.0567,0.0597,0.0628,0.0638,0.0615,0.0657,0.0725,0.0725,0.0725,0.0616,0.0608,0.0601,0,0,0,0,0,0.0428,0.0417,0.0428,0.0432,0.046,0.0474,0.0478,0.0498,0.0511,0.0505,0.0538,0.0565,0.0632,0.0631,0.0642,0.062,0.0726,0.0725,0.0725,0.062,0.061,0.0601,0,0,0,0,0,0,0.039,0.0419,0.0432,0.0429,0.0445,0.0477,0.0474,0.0493,0.0515,0.0519,0.0565,0.0575,0.0592,0.0628,0.0625,0.0644,0.0683,0.0685,0.0599,0.0591,0.0583,0.0557,0.066,0,0,0,0,0,0.0381,0.0384,0.0412,0.0409,0.0415,0.0446,0.0453,0.0468,0.0495,0.0504,0.0537,0.0574,0.06,0.0611,0.0648,0.0656,0.0679,0.0652,0.0644,0.0637,0.0626,0.0637,0.0629,0.0723,0.0723,0.0723,0,0,0.0365,0.0382,0.0382,0.0401,0.0417,0.0407,0.0449,0.0456,0.0443,0.0512,0.0509,0.0554,0.0601,0.0607,0.0617,0.063,0.0622,0.0637,0.063,0.0622,0.0636,0.0626,0.0618,0.0722,0.0722,0.0722,0,0,0.0333,0.0349,0.034,0.0345,0.0365,0.0379,0.0378,0.0408,0.0416,0.043,0.0469,0.0495,0.0544,0.0558,0.0574,0.0551,0.0588,0.0568,0.0498,0.0509,0.05,0.0493,0.0499,0.0493,0.0556,0.0555,0.0555,0,0.0309,0.03,0.0337,0.0323,0.0311,0.0359,0.0331,0.0346,0.038,0.0378,0.0416,0.0472,0.0514,0.0505,0.0496,0.0529,0.0544,0.0522,0.0495,0.0489,0.0484,0.0491,0.0486,0.055,0.0551,0.0551,0.0552,0,0.0269,0.0255,0.0246,0.024,0.0234,0.0219,0.0239,0.024,0.0266,0.0284,0.03,0.0365,0.0393,0.0411,0.0447,0.0425,0.045,0.0487,0.0508,0.0467,0.0478,0.0475,0.0542,0.0544,0.0546,0.0547,0,0,0.0219,0.0217,0.0209,0.018,0.0183,0.0167,0.0147,0.0134,0.0111,0.0165,0.0145,0.02,0.0247,0.027,0.0321,0.0332,0.0309,0.0384,0.0388,0.0371,0.0325,0.0428,0.0436,0.0338,0.0338,0.0337,0.0343,0,0.0167,0.0118,0.0131,0.0059,0.0025,0.0044,0.0016,0.0013,0.0034,0.0033,0.0098,0.0116,0.0188,0.0207,0.0225,0.0294,0.0298,0.0304,0.0384,0.0386,0.0469,0.0435,0.0531,0.0553,0.034,0.034,0.034,0,0.0112,0.0082,0.0016,-0.0045,-0.006,-0.0091,-0.0142,-0.0153,-0.0137,-0.0114,-0.0081,-0.0019,0.0008,0.009,0.0157,0.0157,0.0225,0.0283,0.0285,0.0419,0.0485,0.0566,0.0556,0.0677,0.0335,0.0336,0.0336,0,0.0045,-0.0014,-0.0073,-0.0093,-0.0137,-0.0173,-0.0195,-0.02,-0.0218,-0.0196,-0.0197,-0.0144,-0.0109,-0.0027,0.0107,0.0122,0.0192,0.023,0.0381,0.0388,0.0507,0.0528,0.0611,0.0268,0.0268,0.0268,0.0268,0,-0.0027,-0.0084,-0.011,-0.0148,-0.0239,-0.0238,-0.0308,-0.0317,-0.0315,-0.0348,-0.0267,-0.0278,-0.0134,-0.0065,0.0054,0.0212,0.015,0.036,0.0397,0.0473,0.049,0.0632,0.0668,0.0268,0.0268,0.0268,0.0268,0,-0.009,-0.01,-0.018,-0.0239,-0.0266,-0.0325,-0.038,-0.0416,-0.0406,-0.0442,-0.0436,-0.0385,-0.0275,-0.0116,0.0023,0.0151,0.0389,0.0361,0.0445,0.0493,0.0769,0.0794,0.0888,0.0997,0.0517,0.052,0.0522,0,-0.0125,-0.0163,-0.0246,-0.0291,-0.032,-0.0393,-0.0435,-0.0454,-0.0482,-0.0515,-0.0535,-0.045,-0.0343,-0.0085,0.0153,0.0398,0.0488,0.0607,0.0668,0.0793,0.0846,0.0841,0.0925,0.0767,0.0771,0.0774,0.0777,0,-0.0193,-0.0208,-0.0263,-0.0349,-0.0411,-0.0481,-0.054,-0.058,-0.0597,-0.0622,-0.0633,-0.0547,-0.0265,0.0075,0.0424,0.0559,0.0732,0.0684,0.0787,0.1029,0.1051,0.1172,0.0741,0.0806,0.0803,0.0801,0.08,0.0798,-0.0231,-0.0278,-0.0325,-0.041,-0.0473,-0.0531,-0.0568,-0.0611,-0.0651,-0.0621,-0.0629,-0.0394,0.0085,0.0612,0.0704,0.1039,0.0977,0.1178,0.1187,0.1161,0.1308,0.0947,0.108,0.1078,0.1077,0.1076,0.1075,0,-0.0275,-0.0308,-0.0382,-0.046,-0.0508,-0.0538,-0.0604,-0.0597,-0.0613,-0.0516,-0.0442,0.0159,0.0617,0.0985,0.1427,0.1555,0.1551,0.161,0.1617,0.1675,0.1343,0.1401,0.1642,0.1641,0.1641,0.1641,0.1641,0.1641,-0.0297,-0.0356,-0.0384,-0.0455,-0.0497,-0.0533,-0.0551,-0.0532,-0.0438,-0.016,0.0188,0.0498,0.1067,0.1556,0.1892,0.1922,0.2033,0.2006,0.2051,0.1816,0.1775,0.1737,0.1802,0.2122,0.2123,0.2415,0.2418,0.242]}],[{"header":{"parameterUnit":"m.s-1","parameterCategory":2,"la1":30.2991,"la2":30.254,"lo1":-89.0895,"lo2":-89.0444,"dy":0.0017,"dx":0.0017,"nx":28,"ny":28,"refTime":"2025-04-13T21:00:00:Z","depth":"2","parameterNumber":2,"parameterNumberName":"U-component_of_CURRENTS"},"data":[0,0,0,0,0,0,0,0,0,0,0,0,0,0,0,0,0,0,0,0,0,0,0,0,0,0,0,0,0,0,0,0,0,0,0,0,0,0,0,0,0,0,0,0,0,0,0,0,0,0,0,0,0,0,0,0,0,0,-0.2337,-0.2339,0,-0.239,-0.2389,-0.2389,-0.2245,-0.2241,-0.2238,-0.2235,-0.2199,-0.2201,-0.2203,0,0,0,0,0,0,0,0,0,0,0,0,0,-0.2131,-0.2134,-0.2337,-0.2339,-0.2341,-0.239,-0.2389,-0.2389,-0.2245,-0.2241,-0.2237,-0.2234,-0.2199,-0.2201,-0.2204,0,0,0,0,0,0,0,0,0,0,0,0,0,-0.2193,-0.2135,-0.2337,-0.2285,-0.2282,-0.239,-0.2389,-0.2389,-0.2246,-0.2241,-0.2236,-0.2232,-0.2198,-0.2201,-0.2204,-0.2322,0,0,-0.2213,-0.2215,0,0,0,0,0,0,0,0,-0.219,-0.2199,-0.2291,-0.2289,-0.2286,-0.2317,-0.2304,-0.2367,-0.2247,-0.2246,-0.2235,-0.2229,-0.2243,-0.2242,-0.2245,-0.232,-0.2318,-0.2214,-0.2216,-0.2217,-0.2218,0,0,0,0,0,0,0,-0.2186,-0.2197,-0.2345,-0.2293,-0.229,-0.2267,-0.2268,-0.2315,-0.2259,-0.2245,-0.2238,-0.2267,-0.2238,-0.2243,-0.2243,-0.2318,-0.2214,-0.2216,-0.2218,-0.222,-0.234,-0.2341,0,0,0,0,0,0,-0.2211,-0.2194,-0.2343,-0.2348,-0.224,-0.2275,-0.2276,-0.2301,-0.2261,-0.2254,-0.2271,-0.226,-0.224,-0.224,-0.2242,-0.2294,-0.2217,-0.222,-0.2222,-0.2339,-0.234,-0.2342,0,0,0,0,0,0,-0.2207,-0.2224,-0.2341,-0.2281,-0.2296,-0.2285,-0.2314,-0.2305,-0.2253,-0.2284,-0.2271,-0.2222,-0.2236,-0.2237,-0.2286,-0.2294,-0.2221,-0.2224,-0.2337,-0.2339,-0.2341,-0.2453,0,0,0,0,0,0,-0.22,-0.2222,-0.2223,-0.2284,-0.2301,-0.2374,-0.232,-0.231,-0.2289,-0.2273,-0.2241,-0.2235,-0.2232,-0.2281,-0.2289,-0.2297,-0.2227,-0.2335,-0.2338,-0.234,-0.2448,-0.2459,-0.2468,0,0,0,0,0,-0.2193,-0.2218,-0.2223,-0.224,-0.2312,-0.2377,-0.238,-0.2347,-0.2291,-0.2277,-0.2286,-0.2232,-0.2298,-0.2288,-0.2296,-0.2304,-0.2334,-0.2337,-0.234,-0.2443,-0.2457,-0.2468,0,0,0,0,0,0,-0.2127,-0.221,-0.2214,-0.2262,-0.2306,-0.2356,-0.2353,-0.2334,-0.2328,-0.2302,-0.2292,-0.2292,-0.2325,-0.2311,-0.2298,-0.2341,-0.2291,-0.2296,-0.2367,-0.2379,-0.2389,-0.2404,-0.2229,0,0,0,0,0,-0.2127,-0.2154,-0.2237,-0.2268,-0.2295,-0.2317,-0.2329,-0.2317,-0.2343,-0.2327,-0.2321,-0.232,-0.2358,-0.2362,-0.2383,-0.244,-0.2374,-0.2434,-0.2444,-0.2453,-0.2469,-0.2421,-0.2428,-0.2351,-0.2351,-0.2351,0,0,-0.2114,-0.2162,-0.2177,-0.2255,-0.2282,-0.2361,-0.2304,-0.2328,-0.2397,-0.2337,-0.2388,-0.2362,-0.2382,-0.2437,-0.2445,-0.2418,-0.2428,-0.2457,-0.2465,-0.2476,-0.2425,-0.2432,-0.2439,-0.2353,-0.2353,-0.2353,0,0,-0.2138,-0.2146,-0.2195,-0.2239,-0.2302,-0.2346,-0.2348,-0.2391,-0.2398,-0.246,-0.2443,-0.2433,-0.2466,-0.2499,-0.252,-0.2603,-0.2487,-0.2571,-0.2641,-0.2595,-0.2601,-0.2605,-0.2477,-0.247,-0.2573,-0.2573,-0.2574,0,-0.2117,-0.2194,-0.2215,-0.2287,-0.2331,-0.2345,-0.2419,-0.2478,-0.2525,-0.2563,-0.2472,-0.2514,-0.2505,-0.2619,-0.2631,-0.2627,-0.2547,-0.2599,-0.2608,-0.2612,-0.2615,-0.2482,-0.2473,-0.2579,-0.2579,-0.2578,-0.2577,0,-0.2208,-0.2252,-0.2282,-0.239,-0.2442,-0.2491,-0.2601,-0.2646,-0.2629,-0.2667,-0.2707,-0.2683,-0.269,-0.2678,-0.2683,-0.2721,-0.2635,-0.2629,-0.2579,-0.2629,-0.2486,-0.2473,-0.2587,-0.2585,-0.2584,-0.2582,0,0,-0.2181,-0.2322,-0.2319,-0.24,-0.2484,-0.2566,-0.2691,-0.2822,-0.2893,-0.288,-0.2916,-0.2961,-0.2873,-0.2891,-0.2862,-0.2822,-0.2745,-0.273,-0.2725,-0.2603,-0.2567,-0.2487,-0.2464,-0.2732,-0.2732,-0.2732,-0.2438,0,-0.2231,-0.2394,-0.2431,-0.2583,-0.2685,-0.2735,-0.286,-0.2974,-0.2996,-0.3039,-0.3019,-0.3024,-0.299,-0.293,-0.2909,-0.2782,-0.2726,-0.282,-0.2536,-0.2526,-0.2453,-0.2455,-0.2303,-0.2029,-0.2426,-0.2424,-0.2422,0,-0.2282,-0.2403,-0.2545,-0.2723,-0.2765,-0.283,-0.299,-0.3102,-0.3195,-0.3184,-0.3173,-0.3131,-0.3104,-0.3013,-0.2857,-0.2907,-0.2757,-0.2642,-0.2628,-0.2515,-0.2428,-0.2054,-0.1991,-0.24,-0.2402,-0.2404,-0.2405,0,-0.2277,-0.2465,-0.2584,-0.2638,-0.2846,-0.2891,-0.2976,-0.3099,-0.3175,-0.3222,-0.3168,-0.3189,-0.306,-0.2965,-0.2745,-0.2781,-0.2494,-0.2514,-0.2309,-0.2296,-0.2095,-0.2068,-0.2402,-0.2402,-0.2403,-0.2404,-0.2405,0,-0.23,-0.2389,-0.2581,-0.2647,-0.2778,-0.2902,-0.2979,-0.308,-0.3135,-0.3144,-0.3193,-0.3113,-0.303,-0.287,-0.2732,-0.2452,-0.2481,-0.231,-0.2235,-0.2123,-0.2104,-0.239,-0.2393,-0.2393,-0.2395,-0.2397,-0.2399,0,-0.2223,-0.2352,-0.2506,-0.2714,-0.2756,-0.283,-0.292,-0.2983,-0.3044,-0.3011,-0.3,-0.2991,-0.2775,-0.2675,-0.243,-0.2359,-0.2155,-0.2052,-0.1891,-0.1807,-0.1983,-0.1995,-0.1807,-0.1802,-0.1798,-0.1794,-0.1792,0,-0.2193,-0.2267,-0.2485,-0.2534,-0.2578,-0.2685,-0.2728,-0.2877,-0.2891,-0.2895,-0.2834,-0.2691,-0.2527,-0.2192,-0.2036,-0.1797,-0.1923,-0.1569,-0.1672,-0.1986,-0.1931,-0.195,-0.1967,-0.1394,-0.1388,-0.1384,-0.138,0,-0.2112,-0.2161,-0.2274,-0.2379,-0.2426,-0.2532,-0.257,-0.2585,-0.2696,-0.2639,-0.2503,-0.2386,-0.2109,-0.1813,-0.1587,-0.1459,-0.1627,-0.1466,-0.1794,-0.1616,-0.1588,-0.1538,-0.1569,-0.1337,-0.1341,-0.1344,-0.1347,-0.1348,-0.1975,-0.201,-0.2117,-0.2198,-0.2262,-0.2295,-0.2274,-0.2305,-0.2269,-0.2131,-0.2126,-0.189,-0.1864,-0.1438,-0.1246,-0.1112,-0.1243,-0.122,-0.1238,-0.126,-0.1313,-0.1285,-0.0979,-0.0981,-0.0983,-0.0985,-0.0986,0,-0.1829,-0.1865,-0.1931,-0.2017,-0.1973,-0.2097,-0.2117,-0.2039,-0.1873,-0.1762,-0.1576,-0.1408,-0.1181,-0.1141,-0.0835,-0.076,-0.0789,-0.0749,-0.0801,-0.0842,-0.0879,-0.0919,-0.0476,-0.0475,-0.0473,-0.0472,0,0,-0.1745,-0.1736,-0.1789,-0.1683,-0.1714,-0.1627,-0.1588,-0.1504,-0.1394,-0.1162,-0.1051,-0.1088,-0.1122,-0.0863,-0.0733,-0.0521,-0.0678,-0.0484,-0.0887,-0.0986,-0.1021,-0.1135,-0.1239,0,0,0,0,0]},{"header":{"parameterUnit":"m.s-1","parameterCategory":2,"la1":30.2991,"la2":30.254,"lo1":-89.0895,"lo2":-89.0444,"dy":0.0017,"dx":0.0017,"nx":28,"ny":28,"refTime":"2025-04-13T21:00:00:Z","depth":"2","parameterNumber":3,"parameterNumberName":"V-component_of_CURRENTS"},"data":[0,0,0,0,0,0,0,0,0,0,0,0,0,0,0,0,0,0,0,0,0,0,0,0,0,0,0,0,0,0,0,0,0,0,0,0,0,0,0,0,0,0,0,0,0,0,0,0,0,0,0,0,0,0,0,0,0,0,-0.0048,-0.0048,0,-0.001,-0.0009,-0.0008,0.0076,0.0077,0.0078,0.0078,0.0117,0.0118,0.0118,0,0,0,0,0,0,0,0,0,0,0,0,0,0.0018,0.0017,-0.0048,-0.0048,-0.0049,-0.0011,-0.0009,-0.0008,0.0076,0.0077,0.0078,0.0079,0.0117,0.0118,0.0118,0,0,0,0,0,0,0,0,0,0,0,0,0,0.0025,0.0016,-0.0048,-0.001,-0.0007,-0.0011,-0.0009,-0.0007,0.0076,0.0077,0.0078,0.0079,0.0117,0.0118,0.0118,0.0097,0,0,0.012,0.012,0,0,0,0,0,0,0,0,0.0025,0.0024,-0.0015,-0.0013,-0.0009,0.0021,0.0028,0.0024,0.0075,0.0055,0.0078,0.008,0.0078,0.0081,0.01,0.0099,0.01,0.012,0.012,0.012,0.012,0,0,0,0,0,0,0,0.0024,0.0023,-0.0023,-0.0016,-0.0013,0.0027,0.003,0.0029,0.0067,0.0057,0.006,0.0048,0.0081,0.01,0.0102,0.0101,0.012,0.012,0.012,0.012,0.0162,0.0163,0,0,0,0,0,0,-0.0006,0.0022,-0.0024,-0.0023,-0.0,0.0023,0.0027,0.0018,0.0067,0.0073,0.0047,0.0052,0.0098,0.0101,0.0103,0.0107,0.012,0.012,0.0121,0.0161,0.0162,0.0163,0,0,0,0,0,0,-0.0005,-0.0011,-0.0026,-0.0007,-0.0008,0.002,0.0009,0.0018,0.0053,0.0058,0.0066,0.0074,0.0099,0.0102,0.0103,0.0108,0.0121,0.0121,0.016,0.0161,0.0162,0.0098,0,0,0,0,0,0,-0.0003,-0.001,-0.0012,-0.001,-0.0011,-0.0032,0.0007,0.0017,0.0037,0.0045,0.0082,0.0087,0.0101,0.0102,0.0103,0.0109,0.0121,0.0159,0.0161,0.0162,0.0099,0.0097,0.0095,0,0,0,0,0,-0.0001,-0.0022,-0.0012,-0.0018,-0.0019,-0.0034,-0.0029,0.0002,0.0037,0.0043,0.0067,0.0087,0.0115,0.0101,0.0103,0.0109,0.0158,0.016,0.0162,0.01,0.0097,0.0095,0,0,0,0,0,0,-0.0001,-0.0016,-0.0005,-0.0031,-0.0034,-0.0024,-0.0022,0.0005,0.0034,0.0049,0.0074,0.0078,0.0086,0.0109,0.0094,0.0133,0.0149,0.0151,0.0102,0.0099,0.0097,0.0098,0.0122,0,0,0,0,0,-0.0006,-0.0014,-0.0029,-0.0045,-0.0052,-0.0029,-0.0025,-0.0005,0.0008,0.0026,0.0045,0.0076,0.0093,0.0103,0.0117,0.0122,0.0154,0.0139,0.0137,0.0134,0.014,0.0234,0.024,0.0169,0.0169,0.0169,0,0,-0.0014,-0.0021,-0.0027,-0.0044,-0.0038,-0.0059,-0.002,-0.002,-0.0024,0.002,0.0028,0.0058,0.0092,0.0099,0.0108,0.012,0.0156,0.0137,0.0134,0.0142,0.0236,0.0243,0.0249,0.017,0.017,0.017,0,0,-0.0049,-0.004,-0.0065,-0.0069,-0.0075,-0.0067,-0.0068,-0.0058,-0.0038,-0.0036,0.0003,0.0042,0.0054,0.009,0.0109,0.0109,0.0137,0.0116,0.0107,0.0196,0.0203,0.0209,0.0182,0.0187,0.0122,0.0122,0.0122,0,-0.0056,-0.009,-0.0074,-0.0101,-0.0111,-0.0075,-0.0106,-0.0089,-0.0075,-0.0044,-0.0041,0.005,0.0058,0.011,0.0093,0.0104,0.0121,0.0103,0.0192,0.02,0.0208,0.0179,0.0185,0.0119,0.0119,0.0119,0.012,0,-0.0122,-0.0135,-0.0152,-0.017,-0.0174,-0.0193,-0.0186,-0.0167,-0.0132,-0.0089,-0.0026,0.0007,0.0071,0.0081,0.0068,0.0134,0.0109,0.017,0.0192,0.0211,0.0179,0.0186,0.0115,0.0116,0.0117,0.0117,0,0,-0.0169,-0.0196,-0.0195,-0.0215,-0.021,-0.0229,-0.0222,-0.0198,-0.0147,-0.0108,-0.0035,-0.0012,0.0052,0.0076,0.0102,0.0165,0.0179,0.017,0.0176,0.0127,0.0291,0.0345,0.0357,0.0261,0.0264,0.0266,0.0217,0,-0.0224,-0.0298,-0.0279,-0.0325,-0.0369,-0.0315,-0.0301,-0.0254,-0.0187,-0.0105,-0.0015,0.0047,0.0037,0.0069,0.0132,0.0179,0.0209,0.0181,0.0294,0.0295,0.0333,0.0374,0.0357,0.0322,0.0225,0.0226,0.0227,0,-0.0293,-0.0337,-0.0407,-0.0403,-0.0409,-0.041,-0.0349,-0.0335,-0.0193,-0.0132,-0.0019,0.0065,0.0126,0.0143,0.0232,0.0212,0.0228,0.0271,0.0272,0.0363,0.0369,0.0307,0.034,0.024,0.0239,0.0238,0.0237,0,-0.0368,-0.0411,-0.0471,-0.0481,-0.0477,-0.0464,-0.0446,-0.0329,-0.029,-0.0147,-0.0079,0.0059,0.0092,0.0193,0.0222,0.0236,0.0331,0.0377,0.0436,0.0433,0.0465,0.0465,0.0462,0.0462,0.0462,0.0462,0.0462,0,-0.0442,-0.0478,-0.0509,-0.0547,-0.0578,-0.0538,-0.0506,-0.0446,-0.0317,-0.0255,-0.0114,-0.0039,0.0113,0.0187,0.0238,0.0334,0.0336,0.0437,0.0461,0.0433,0.0431,0.042,0.0415,0.046,0.046,0.0461,0.0461,0,-0.0505,-0.0526,-0.06,-0.0619,-0.0623,-0.065,-0.0599,-0.0552,-0.0438,-0.0355,-0.0323,-0.0137,-0.0026,0.0103,0.0244,0.0327,0.0438,0.046,0.0355,0.0373,0.0461,0.0454,0.0559,0.0561,0.0563,0.0565,0.0566,0,-0.054,-0.0594,-0.0674,-0.0719,-0.0728,-0.0752,-0.0741,-0.0642,-0.0591,-0.0424,-0.0389,-0.0233,-0.0089,0.0133,0.03,0.0442,0.0435,0.0508,0.0589,0.0476,0.0488,0.0478,0.0468,0.0538,0.0539,0.054,0.0541,0,-0.0607,-0.0634,-0.0697,-0.0807,-0.084,-0.0874,-0.0857,-0.0836,-0.0709,-0.0611,-0.0474,-0.0325,-0.007,0.0168,0.0386,0.0464,0.0511,0.0537,0.0483,0.0547,0.0464,0.0473,0.0463,0.0548,0.0548,0.0547,0.0547,0.0546,-0.0632,-0.0701,-0.0786,-0.0886,-0.0925,-0.0966,-0.0979,-0.0923,-0.0847,-0.0661,-0.0557,-0.0254,-0.001,0.0405,0.0482,0.057,0.0595,0.0648,0.0642,0.0636,0.0675,0.0605,0.0712,0.0713,0.0713,0.0713,0.0713,0,-0.0678,-0.075,-0.0856,-0.0966,-0.1017,-0.1016,-0.1017,-0.098,-0.0896,-0.0661,-0.0492,-0.0133,0.0191,0.0426,0.059,0.0694,0.0648,0.0699,0.0626,0.0619,0.0613,0.0648,0.0679,0.0679,0.0679,0.0679,0,0,-0.0703,-0.082,-0.0902,-0.1022,-0.1066,-0.1091,-0.1087,-0.1003,-0.0823,-0.0601,-0.0309,0.0024,0.0348,0.0472,0.0551,0.0618,0.058,0.0609,0.063,0.0523,0.0515,0.0584,0.0632,0,0,0,0,0]}],[{"header":{"parameterUnit":"m.s-1","parameterCategory":2,"la1":30.2991,"la2":30.254,"lo1":-89.0895,"lo2":-89.0444,"dy":0.0017,"dx":0.0017,"nx":28,"ny":28,"refTime":"2025-04-13T21:00:00:Z","depth":"4","parameterNumber":2,"parameterNumberName":"U-component_of_CURRENTS"},"data":[0,0,0,0,0,0,0,0,0,0,0,0,0,0,0,0,0,0,0,0,0,0,0,0,0,0,0,0,0,0,0,0,0,0,0,0,0,0,0,0,0,0,0,0,0,0,0,0,0,0,0,0,0,0,0,0,0,0,-0.1337,-0.1338,0,-0.1372,-0.1372,-0.1373,-0.1393,-0.1393,-0.1393,-0.1393,-0.1457,-0.1458,-0.146,0,0,0,0,0,0,0,0,0,0,0,0,0,-0.1242,-0.1244,-0.1337,-0.1338,-0.1338,-0.1372,-0.1372,-0.1373,-0.1393,-0.1393,-0.1393,-0.1393,-0.1456,-0.1458,-0.146,0,0,0,0,0,0,0,0,0,0,0,0,0,-0.128,-0.1244,-0.1337,-0.1353,-0.1354,-0.1372,-0.1373,-0.1373,-0.1393,-0.1393,-0.1393,-0.1393,-0.1455,-0.1458,-0.146,-0.1471,0,0,-0.1467,-0.1468,0,0,0,0,0,0,0,0,-0.1278,-0.1284,-0.135,-0.1352,-0.1354,-0.1379,-0.1362,-0.1407,-0.1393,-0.1378,-0.1393,-0.1393,-0.1433,-0.1438,-0.1443,-0.1474,-0.1477,-0.1468,-0.1469,-0.147,-0.1471,0,0,0,0,0,0,0,-0.1275,-0.1282,-0.1351,-0.135,-0.1353,-0.1342,-0.1348,-0.137,-0.1404,-0.1379,-0.1381,-0.1385,-0.1435,-0.144,-0.1444,-0.1478,-0.1467,-0.147,-0.1471,-0.1472,-0.1595,-0.1596,0,0,0,0,0,0,-0.1275,-0.128,-0.1349,-0.1352,-0.1316,-0.1344,-0.135,-0.137,-0.1403,-0.1409,-0.1385,-0.1386,-0.1436,-0.1442,-0.1447,-0.1528,-0.147,-0.1472,-0.1474,-0.1593,-0.1595,-0.1597,0,0,0,0,0,0,-0.1273,-0.1281,-0.1348,-0.1316,-0.1324,-0.1346,-0.1367,-0.1371,-0.1401,-0.1408,-0.1413,-0.1414,-0.1436,-0.1443,-0.1471,-0.1528,-0.1473,-0.1475,-0.1591,-0.1593,-0.1596,-0.1649,0,0,0,0,0,0,-0.127,-0.1281,-0.1304,-0.1316,-0.1326,-0.1373,-0.1367,-0.1371,-0.1402,-0.1404,-0.1434,-0.1439,-0.1437,-0.1468,-0.1474,-0.1531,-0.1477,-0.1588,-0.1592,-0.1595,-0.1645,-0.1653,-0.166,0,0,0,0,0,-0.1267,-0.1291,-0.1306,-0.1314,-0.1355,-0.1374,-0.1378,-0.1392,-0.1403,-0.142,-0.143,-0.1439,-0.1495,-0.147,-0.1477,-0.1536,-0.1587,-0.1591,-0.1595,-0.1641,-0.1651,-0.166,0,0,0,0,0,0,-0.1261,-0.1296,-0.1312,-0.1347,-0.1368,-0.1378,-0.1395,-0.1409,-0.1432,-0.1438,-0.1446,-0.1451,-0.1502,-0.1508,-0.1481,-0.1583,-0.155,-0.1556,-0.1583,-0.1593,-0.16,-0.1596,-0.1479,0,0,0,0,0,-0.1272,-0.1305,-0.1328,-0.136,-0.1371,-0.1391,-0.1405,-0.1417,-0.1432,-0.1444,-0.1467,-0.1494,-0.1522,-0.1546,-0.1565,-0.1615,-0.1592,-0.1663,-0.167,-0.1677,-0.1679,-0.1666,-0.1672,-0.1611,-0.1611,-0.161,0,0,-0.128,-0.1303,-0.1323,-0.1362,-0.1378,-0.1398,-0.1401,-0.1428,-0.1456,-0.1448,-0.1498,-0.1518,-0.1538,-0.1589,-0.1616,-0.1604,-0.1686,-0.1682,-0.1687,-0.1686,-0.1671,-0.1677,-0.1682,-0.1613,-0.1613,-0.1612,0,0,-0.1294,-0.1332,-0.1357,-0.1375,-0.1405,-0.1418,-0.1434,-0.1463,-0.1489,-0.1529,-0.1538,-0.1573,-0.1628,-0.1646,-0.1663,-0.1726,-0.172,-0.1765,-0.181,-0.1798,-0.1802,-0.1805,-0.179,-0.1792,-0.1777,-0.1777,-0.1777,0,-0.13,-0.134,-0.1366,-0.1385,-0.1404,-0.1432,-0.1454,-0.1483,-0.1522,-0.1542,-0.1552,-0.1626,-0.1649,-0.17,-0.1739,-0.1743,-0.1739,-0.1771,-0.1805,-0.1808,-0.1811,-0.1794,-0.1795,-0.178,-0.1779,-0.1779,-0.1779,0,-0.1323,-0.1359,-0.1373,-0.1414,-0.1435,-0.1461,-0.1496,-0.1531,-0.157,-0.1595,-0.1659,-0.1683,-0.173,-0.1761,-0.1778,-0.1834,-0.1826,-0.1807,-0.1775,-0.182,-0.18,-0.18,-0.1784,-0.1783,-0.1782,-0.1781,0,0,-0.1317,-0.138,-0.1386,-0.1408,-0.1454,-0.1471,-0.1519,-0.1564,-0.1595,-0.1651,-0.1694,-0.1767,-0.1796,-0.1819,-0.1853,-0.1861,-0.1889,-0.1868,-0.1866,-0.1842,-0.1873,-0.1736,-0.1723,-0.1885,-0.1885,-0.1886,-0.1854,0,-0.1327,-0.1374,-0.1405,-0.1447,-0.1468,-0.1504,-0.1544,-0.1587,-0.1632,-0.168,-0.1726,-0.178,-0.1818,-0.1858,-0.1879,-0.1894,-0.1893,-0.19,-0.1844,-0.1842,-0.1705,-0.1719,-0.1887,-0.1853,-0.1853,-0.1853,-0.1853,0,-0.1327,-0.1364,-0.1412,-0.1463,-0.1477,-0.1508,-0.1564,-0.1604,-0.1667,-0.1703,-0.1764,-0.1806,-0.1877,-0.1877,-0.1914,-0.1928,-0.1915,-0.1901,-0.1899,-0.1749,-0.1704,-0.18,-0.1853,-0.1853,-0.1853,-0.1853,-0.1853,0,-0.1293,-0.1359,-0.1405,-0.1423,-0.1488,-0.1518,-0.1556,-0.1612,-0.1651,-0.1726,-0.1764,-0.1832,-0.1886,-0.1887,-0.1907,-0.1924,-0.1899,-0.19,-0.1747,-0.1737,-0.1847,-0.1844,-0.1877,-0.1877,-0.1878,-0.1878,-0.1878,0,-0.1272,-0.1306,-0.1399,-0.1416,-0.1459,-0.1511,-0.1554,-0.1597,-0.1667,-0.1703,-0.1792,-0.1827,-0.1896,-0.1904,-0.1899,-0.1824,-0.189,-0.1747,-0.1714,-0.1873,-0.1873,-0.1847,-0.1844,-0.1876,-0.1877,-0.1877,-0.1877,0,-0.1213,-0.1281,-0.1328,-0.1415,-0.1441,-0.1471,-0.1547,-0.1574,-0.1657,-0.1709,-0.1743,-0.1843,-0.1844,-0.1857,-0.1841,-0.1798,-0.1733,-0.1674,-0.184,-0.1818,-0.1587,-0.1588,-0.1514,-0.1509,-0.1504,-0.15,-0.1497,0,-0.1181,-0.1208,-0.1311,-0.1332,-0.1374,-0.1428,-0.1458,-0.1552,-0.1583,-0.1696,-0.1714,-0.1761,-0.1798,-0.1667,-0.1695,-0.1618,-0.1593,-0.1564,-0.1586,-0.1572,-0.1548,-0.1556,-0.1562,-0.149,-0.1489,-0.1488,-0.1487,0,-0.1112,-0.117,-0.1211,-0.1261,-0.1306,-0.1344,-0.1402,-0.1417,-0.152,-0.1622,-0.1626,-0.1616,-0.1597,-0.1573,-0.1507,-0.1462,-0.1595,-0.1518,-0.1528,-0.1548,-0.1542,-0.1525,-0.1536,-0.1471,-0.1474,-0.1475,-0.1476,0,-0.1055,-0.1073,-0.1136,-0.1165,-0.122,-0.1236,-0.128,-0.1311,-0.1357,-0.149,-0.1481,-0.1516,-0.158,-0.1488,-0.1436,-0.1368,-0.1356,-0.133,-0.135,-0.1367,-0.133,-0.1303,-0.112,0,0,0,0,0,-0.0981,-0.0996,-0.1024,-0.1058,-0.1111,-0.1139,-0.1228,-0.128,-0.1391,-0.1352,-0.1409,-0.1375,-0.1318,-0.1342,-0.1234,-0.1356,-0.1353,-0.1228,-0.1334,-0.1386,-0.1404,-0.1372,0,0,0,0,0,0,-0.0935,-0.0967,-0.0989,-0.0958,-0.0958,-0.1007,-0.1059,-0.114,-0.1122,-0.1235,-0.12,-0.1288,-0.1236,-0.1336,-0.1202,-0.1203,-0.1242,-0.1251,-0.1247,-0.1376,-0.1392,-0.1407,-0.138,0,0,0,0,0]},{"header":{"parameterUnit":"m.s-1","parameterCategory":2,"la1":30.2991,"la2":30.254,"lo1":-89.0895,"lo2":-89.0444,"dy":0.0017,"dx":0.0017,"nx":28,"ny":28,"refTime":"2025-04-13T21:00:00:Z","depth":"4","parameterNumber":3,"parameterNumberName":"V-component_of_CURRENTS"},"data":[0,0,0,0,0,0,0,0,0,0,0,0,0,0,0,0,0,0,0,0,0,0,0,0,0,0,0,0,0,0,0,0,0,0,0,0,0,0,0,0,0,0,0,0,0,0,0,0,0,0,0,0,0,0,0,0,0,0,-0.0286,-0.0286,0,-0.0301,-0.0301,-0.0301,-0.0293,-0.0293,-0.0292,-0.0292,-0.0292,-0.0293,-0.0293,0,0,0,0,0,0,0,0,0,0,0,0,0,-0.0292,-0.0291,-0.0286,-0.0286,-0.0286,-0.0301,-0.0301,-0.0301,-0.0293,-0.0293,-0.0292,-0.0291,-0.0292,-0.0293,-0.0293,0,0,0,0,0,0,0,0,0,0,0,0,0,-0.0297,-0.0291,-0.0286,-0.0283,-0.0283,-0.0301,-0.0301,-0.0301,-0.0293,-0.0293,-0.0292,-0.0291,-0.0292,-0.0292,-0.0293,-0.0311,0,0,-0.0295,-0.0295,0,0,0,0,0,0,0,0,-0.0296,-0.0296,-0.0284,-0.0284,-0.0283,-0.0294,-0.0303,-0.0304,-0.0293,-0.029,-0.0292,-0.0291,-0.0292,-0.0292,-0.0298,-0.0311,-0.0311,-0.0295,-0.0296,-0.0296,-0.0296,0,0,0,0,0,0,0,-0.0296,-0.0296,-0.0292,-0.0284,-0.0284,-0.0296,-0.0295,-0.0304,-0.0295,-0.029,-0.029,-0.0291,-0.0291,-0.0297,-0.0297,-0.0311,-0.0295,-0.0296,-0.0296,-0.0296,-0.0345,-0.0345,0,0,0,0,0,0,-0.0292,-0.0295,-0.0292,-0.0293,-0.0288,-0.0296,-0.0296,-0.0292,-0.0295,-0.0295,-0.0291,-0.029,-0.0296,-0.0297,-0.0297,-0.0329,-0.0296,-0.0297,-0.0297,-0.0344,-0.0345,-0.0346,0,0,0,0,0,0,-0.0292,-0.0291,-0.0291,-0.0294,-0.0295,-0.0296,-0.0292,-0.0292,-0.0301,-0.0296,-0.0295,-0.03,-0.0296,-0.0296,-0.0314,-0.0329,-0.0297,-0.0297,-0.0343,-0.0344,-0.0345,-0.0387,0,0,0,0,0,0,-0.0292,-0.0291,-0.0291,-0.0294,-0.0295,-0.0307,-0.0293,-0.0293,-0.0302,-0.0301,-0.0303,-0.0302,-0.0295,-0.0313,-0.0314,-0.0329,-0.0298,-0.0342,-0.0343,-0.0345,-0.0384,-0.0389,-0.0393,0,0,0,0,0,-0.0292,-0.0294,-0.0291,-0.0291,-0.0294,-0.0307,-0.031,-0.0309,-0.0303,-0.0313,-0.0316,-0.0302,-0.0324,-0.0315,-0.0316,-0.0331,-0.0341,-0.0343,-0.0345,-0.0382,-0.0388,-0.0393,0,0,0,0,0,0,-0.0298,-0.0294,-0.029,-0.0291,-0.0301,-0.0306,-0.0314,-0.0315,-0.0326,-0.0324,-0.0318,-0.0318,-0.034,-0.0331,-0.0321,-0.035,-0.0329,-0.0331,-0.0357,-0.0362,-0.0367,-0.0349,-0.0299,0,0,0,0,0,-0.03,-0.0299,-0.0302,-0.0305,-0.0309,-0.0314,-0.0321,-0.0321,-0.0328,-0.0332,-0.0338,-0.0341,-0.035,-0.0352,-0.036,-0.0378,-0.0311,-0.0387,-0.0392,-0.0396,-0.0383,-0.0308,-0.0304,-0.0352,-0.0352,-0.0352,0,0,-0.0305,-0.0301,-0.0302,-0.0307,-0.0313,-0.0334,-0.0317,-0.0329,-0.0349,-0.0331,-0.0363,-0.0363,-0.036,-0.0381,-0.0388,-0.0374,-0.0342,-0.0398,-0.0402,-0.0386,-0.031,-0.0304,-0.03,-0.0354,-0.0353,-0.0353,0,0,-0.0323,-0.0311,-0.0323,-0.0334,-0.0344,-0.0349,-0.0355,-0.0368,-0.0373,-0.0399,-0.0393,-0.0398,-0.0418,-0.0415,-0.0416,-0.0451,-0.0374,-0.0457,-0.0462,-0.0391,-0.0385,-0.0379,-0.026,-0.0244,-0.0454,-0.0454,-0.0454,0,-0.0331,-0.0345,-0.0332,-0.0353,-0.0368,-0.0359,-0.0389,-0.0395,-0.0414,-0.0416,-0.0413,-0.0424,-0.0432,-0.0436,-0.0453,-0.046,-0.0384,-0.0442,-0.0393,-0.0387,-0.038,-0.0259,-0.0241,-0.0456,-0.0456,-0.0456,-0.0456,0,-0.0365,-0.038,-0.0389,-0.0411,-0.0426,-0.0447,-0.0454,-0.0468,-0.0471,-0.0468,-0.0473,-0.0471,-0.0468,-0.0479,-0.048,-0.045,-0.0397,-0.041,-0.0373,-0.0377,-0.025,-0.023,-0.046,-0.0459,-0.0458,-0.0458,0,0,-0.0378,-0.0408,-0.0413,-0.0439,-0.0459,-0.0478,-0.0502,-0.0518,-0.0523,-0.0521,-0.0512,-0.0531,-0.0504,-0.0501,-0.0493,-0.0438,-0.0335,-0.0405,-0.04,-0.0274,-0.0123,-0.0183,-0.0166,-0.0332,-0.0329,-0.0327,-0.0041,0,-0.0414,-0.0465,-0.0469,-0.0526,-0.0557,-0.0556,-0.0578,-0.0584,-0.0577,-0.0563,-0.0525,-0.0519,-0.0518,-0.051,-0.0456,-0.0368,-0.0287,-0.0408,-0.0148,-0.0139,-0.0184,-0.0148,-0.032,-0.0025,-0.002,-0.0017,-0.0014,0,-0.045,-0.0481,-0.0542,-0.0584,-0.0596,-0.0628,-0.065,-0.0665,-0.063,-0.0615,-0.0575,-0.0535,-0.0459,-0.0462,-0.0267,-0.0336,-0.0232,-0.0152,-0.014,-0.0168,-0.0164,-0.0028,0.0024,0.0021,0.0018,0.0015,0.0013,0,-0.0476,-0.0532,-0.0584,-0.0602,-0.0646,-0.0671,-0.069,-0.0683,-0.068,-0.0634,-0.0594,-0.0509,-0.0427,-0.0305,-0.0158,-0.0194,0.0084,0.0054,0.0116,0.0117,0.0107,0.0098,0.0205,0.0204,0.0204,0.0203,0.0202,0,-0.0514,-0.0557,-0.0604,-0.0636,-0.0693,-0.0705,-0.074,-0.0742,-0.0707,-0.0672,-0.0613,-0.0527,-0.0381,-0.0219,-0.011,0.008,0.0134,0.0142,0.0179,0.0085,0.007,0.0125,0.0112,0.0214,0.0211,0.0209,0.0207,0,-0.054,-0.0568,-0.0633,-0.069,-0.0712,-0.0751,-0.0779,-0.0786,-0.0743,-0.0683,-0.0656,-0.0487,-0.0273,-0.0124,0.0117,0.0159,0.0319,0.0369,0.0312,0.0337,0.0309,0.029,0.049,0.049,0.049,0.049,0.049,0,-0.056,-0.0596,-0.0675,-0.0715,-0.075,-0.0801,-0.0827,-0.0816,-0.08,-0.0645,-0.0593,-0.0374,-0.026,0.0088,0.0205,0.0425,0.0412,0.0501,0.0345,0.0318,0.0336,0.0317,0.0298,0.0491,0.0491,0.0491,0.0491,0,-0.06,-0.0626,-0.0677,-0.0757,-0.0808,-0.0854,-0.0876,-0.0857,-0.0796,-0.0738,-0.0508,-0.0343,-0.009,0.0118,0.028,0.0418,0.0431,0.0501,0.0501,0.0356,0.0321,0.0334,0.0316,0.0491,0.0491,0.0491,0.0491,0,-0.0621,-0.0664,-0.0727,-0.0793,-0.0857,-0.0887,-0.0899,-0.0833,-0.0792,-0.0615,-0.0515,-0.0259,-0.0088,0.0123,0.0277,0.0389,0.039,0.0374,0.038,0.0381,0.0204,0.0135,0.0305,0,0,0,0,0,-0.0635,-0.0684,-0.0756,-0.0828,-0.0887,-0.0917,-0.0919,-0.0905,-0.0819,-0.0664,-0.0594,-0.0364,-0.0092,0.0063,0.0171,0.022,0.0363,0.0339,0.0335,0.0492,0.0492,0.0287,0,0,0,0,0,0,-0.0646,-0.0718,-0.0757,-0.0837,-0.0884,-0.094,-0.094,-0.0885,-0.0785,-0.0664,-0.0493,-0.0381,-0.0101,-0.0141,0.017,0.0208,0.0204,0.0485,0.0485,0.0492,0.0492,0.0492,0.0281,0,0,0,0,0]}]]